STARLINK-1167, 45071

Orbit data source: Space-Track

STARLINK-1167, 45071 is a payload satellite owned by SpaceX/Seattle (US) in LEO that was launched on Wed, 29 Jan 2020 UTC via an FALCON 9 launch vehicle from the Air Force Eastern Test Range (AFETR). Payload-class satellites include a variety of spacecraft equipped with specific instruments for various scientific and technological missions. These include communications satellites like Starlink; space stations such as the ISS; scientific satellites like the Hubble; Earth observation satellites from companies like Planet Labs, Umbra, and HawkEye 360; GPS; miniature CubeSats for education and research; and military/defense satellites.

Loading next visibility...
Identifier
45071, 2020-006AD
Orbit
LEO
Country
Flag of USUS
Related business
Manufacturer
SpaceX/Seattle
Mission
Operational Commercial Communications
Bus & Motor
STARLINK, Unknown motor
Mass
260 kg wet, ~248 kg dry
Launch date (UTC)
2020-01-29 (6 years ago)
Launch vehicle
FALCON 9
Launch site
Air Force Eastern Test Range (AFETR)
Object type
Payload
Rocket body
Debris
Shape & HBR
Box + 1 Pan, 4.4 m
Radar Cross Section
13.562 m², Large (>1 m²)

Expand to show TLE details & history
Last TLE update: 21 hours ago

TLE from 21 hours ago
0 STARLINK-1167
1 45071U 20006AD  25261.15507151 -.00000623  00000-0 -22965-4 0  9997
2 45071  53.0557 321.1604 0001464  92.0718 268.0439 15.06388599310733
Epoch: 2025-09-18T03:43Z
TLE epoch observation values (Epoch: 2025-09-18T03:43:18.178Z)
Latitude
0.00001°
Longitude
-91.98607°
Altitude
548.161 km
Speed
7.589 km/s
True Right ascension
21h 24m 38s
True Declination
0° 00' 00"
Sunlit
Object was in full shadow at epoch
Visualization orbit readout
Latitude
Unknown
Longitude
Unknown
Altitude
Unknown
Speed
Unknown
Apparent Right ascension
Unknown
Apparent Declination
Unknown
Sunlit
N/A
Visualization observer readout
Local Sidereal Time
17:29:07
Azimuth
Unknown
Elevation
Unknown
Doppler factor
Unknown
Orbital elements
Apogee altitude
548.531 km
Perigee altitude
546.503 km
Semi-major axis
6,925.654 km
Eccentricity
0.00015
Inclination
53.0557°
RAAN
321.1604°
Arg. of periapsis
92.0718°
True anomaly
268.02713°
Mean anomaly
268.0439°
Eccentric anomaly
268.03552°
Mean motion
3.76575 °/min
Orbital period
95.6 mins
BSTAR
-0.000022965
Loading maneuver chart data...
Computing Atmospheric mass density...

Documentation

Showing up to 5 results
|